This is the latest recevied weather packets stored in our database for station/object W4CPD. If no packets are shown the sender has not sent any weather packets the latest 10 day(s).
| Time | Temp. | Humidity | Pressure | Rain* | Wind** | Luminosity | Snow |
|---|---|---|---|---|---|---|---|
| 1777539013 | 20° C | 99% | 1012 hPa | 0 mm | - | - | - |
| 1777536313 | 19.44° C | 99% | 1010.9 hPa | 0 mm | - | - | - |
| 1777534513 | 19.44° C | 98% | 1010.3 hPa | 0 mm | - | - | - |
| 1777533613 | 18.89° C | 98% | 1010.8 hPa | 0 mm | - | - | - |
| 1777533015 | 18.89° C | 98% | 1010.7 hPa | 0 mm | - | - | - |
| 1777532113 | 18.89° C | 98% | 1011.5 hPa | 0 mm | - | - | - |
| 1777528830 | 19.44° C | 98% | 1013.3 hPa | 0.25 mm | - | - | - |
| 1777527936 | 18.89° C | 98% | 1013.4 hPa | 0.25 mm | - | - | - |
| 1777524014 | 18.89° C | 97% | 1013.9 hPa | 0 mm | - | - | - |
| 1777523715 | 18.89° C | 97% | 1013.5 hPa | 0 mm | - | - | - |
| 1777521630 | 18.89° C | 96% | 1012.7 hPa | 0 mm | - | - | - |
| 1777520413 | 18.89° C | 96% | 1014.5 hPa | 0.25 mm | - | - | - |
| 1777518313 | 19.44° C | 96% | 1015.3 hPa | 0.51 mm | - | - | - |
| 1777517712 | 19.44° C | 95% | 1016 hPa | 0.51 mm | - | - | - |
| 1777516812 | 19.44° C | 95% | 1016.5 hPa | 0.25 mm | - | - | - |
| 1777516239 | 19.44° C | 95% | 1016.5 hPa | 0 mm | - | - | - |
| 1777515328 | 19.44° C | 95% | 1016.3 hPa | 0.25 mm | - | - | - |
| 1777513529 | 21.11° C | 92% | 1016.1 hPa | 0.51 mm | - | - | - |
| 1777512314 | 23.33° C | 96% | 1015.2 hPa | 0.76 mm | - | - | - |
| 1777511414 | 23.33° C | 95% | 1015 hPa | 0.25 mm | - | - | - |
| 1777507229 | 23.89° C | 91% | 1014.3 hPa | 0 mm | - | - | - |
| 1777505715 | 24.44° C | 88% | 1013.9 hPa | 0 mm | - | - | - |
| 1777504530 | 25° C | 86% | 1013.5 hPa | 0 mm | - | - | - |
| 1777503633 | 25.56° C | 85% | 1013.3 hPa | 0 mm | - | - | - |
| 1777500613 | 26.11° C | 82% | 1012.3 hPa | 0 mm | - | - | - |
* Rain latest hour (hover to see other rain measurements)
** Current wind speed in m/s (hover to see current wind gust speed)